McAllen, TX

10:49 AM CDT on May 24, 2017 (GMT -0500)
McAllen Miller International

Weather History for KMFE - February, 2013

Change the Weather History Date:

Monday, February 4, 2013

  Actual Average Record
Temperature  
Mean Temperature 74 °F 63 °F  
Max Temperature 88 °F 73 °F 89 °F (2008)
Min Temperature 59 °F 52 °F 28 °F (2011)
Degree Days  
Heating Degree Days 0 5  
Month to date heating degree days 0 20  
Since 1 July heating degree days 269 447  
Cooling Degree Days 9 3  
Month to date cooling degree days 20 10  
Year to date cooling degree days 108 72  
Growing Degree Days 24 (Base 50)    
Moisture  
Dew Point 58 °F    
Average Humidity 61    
Maximum Humidity 90    
Minimum Humidity 31    
Precipitation  
Precipitation 0.00 in 0.04 in 1.95 in (1991)
Month to date precipitation T 0.18  
Year to date precipitation 0.98 1.23  
Sea Level Pressure  
Sea Level Pressure 29.88 in    
Wind  
Wind Speed 8 mph (SSE)    
Max Wind Speed 18 mph    
Max Gust Speed 24 mph    
Visibility 10 miles    
Events      
T = Trace of Precipitation, MM = Missing Value Source: NWS Daily Summary

Daily Weather History Graph

Daily Weather History Graph

Search for Another Location

Airport or City:

Trip Planner

Search our weather history database for the weather conditions in past years. The results will help you decide how hot, cold, wet, or windy it might be!

Date:

Astronomy

Feb. 04, 2013 Rise Set
Actual Time 7:15 AM CST 6:18 PM CST
Civil Twilight 6:51 AM CST 6:42 PM CST
Nautical Twilight 6:24 AM CST 7:10 PM CST
Astronomical Twilight 5:56 AM CST 7:37 PM CST
Moon 1:46 AM CST (2/4) 12:51 PM CST (2/4)
Length of Visible Light 11h 50m
Length of Day
11h 03m
Last Quarter, 37% of the Moon is Illuminated
Feb 4
Last Quarter
Feb 10
New
Feb 17
First Quarter
Feb 25
Full
Mar 4
Last Quarter

Hourly Weather History & Observations

Time (CST) Temp. Heat Index Dew Point Humidity Pressure Visibility Wind Dir Wind Speed Gust Speed Precip Events Conditions
12:53 AM 64.0 °F - 55.9 °F 75% 30.00 in 10.0 mi SE 10.4 mph - N/A   Scattered Clouds
1:53 AM 64.0 °F - 55.9 °F 75% 29.97 in 10.0 mi SE 10.4 mph - N/A   Clear
2:53 AM 64.9 °F - 57.0 °F 75% 29.95 in 10.0 mi SE 8.1 mph - N/A   Mostly Cloudy
4:53 AM 62.1 °F - 57.0 °F 84% 29.92 in 10.0 mi SSE 3.5 mph - N/A   Clear
5:53 AM 61.0 °F - 57.9 °F 90% 29.93 in 10.0 mi East 3.5 mph - N/A   Clear
6:53 AM 60.1 °F - 57.0 °F 90% 29.93 in 10.0 mi SE 5.8 mph - N/A   Clear
7:53 AM 62.1 °F - 59.0 °F 90% 29.95 in 10.0 mi ESE 3.5 mph - N/A   Scattered Clouds
8:53 AM 66.0 °F - 60.1 °F 81% 29.94 in 10.0 mi SSE 12.7 mph - N/A   Partly Cloudy
9:53 AM 72.0 °F - 59.0 °F 64% 29.92 in 10.0 mi SSE 15.0 mph 20.7 mph N/A   Clear
10:53 AM 75.9 °F - 57.9 °F 54% 29.92 in 10.0 mi South 16.1 mph 21.9 mph N/A   Clear
11:53 AM 78.1 °F - 57.9 °F 50% 29.90 in 10.0 mi South 15.0 mph 20.7 mph N/A   Clear
12:53 PM 81.0 °F 81.1 °F 57.9 °F 45% 29.86 in 10.0 mi South 8.1 mph - N/A   Clear
1:53 PM 82.9 °F 82.4 °F 57.0 °F 41% 29.82 in 10.0 mi WSW 4.6 mph - N/A   Clear
2:53 PM 84.9 °F 83.7 °F 55.9 °F 37% 29.79 in 10.0 mi Variable 4.6 mph - N/A   Clear
3:53 PM 87.1 °F 85.3 °F 55.0 °F 33% 29.77 in 10.0 mi Variable 3.5 mph - N/A   Clear
4:53 PM 87.1 °F 85.1 °F 54.0 °F 32% 29.77 in 10.0 mi Calm Calm - N/A   Clear
5:53 PM 84.9 °F 83.2 °F 53.1 °F 33% 29.78 in 10.0 mi Calm Calm - N/A   Clear
6:53 PM 75.9 °F - 62.1 °F 62% 29.80 in 10.0 mi SE 16.1 mph - N/A   Clear
7:53 PM 73.0 °F - 61.0 °F 66% 29.83 in 10.0 mi SE 12.7 mph - N/A   Clear
8:53 PM 71.1 °F - 60.1 °F 68% 29.85 in 10.0 mi SE 11.5 mph - N/A   Clear
9:53 PM 69.1 °F - 61.0 °F 75% 29.86 in 10.0 mi SE 10.4 mph - N/A   Clear
10:53 PM 68.0 °F - 61.0 °F 78% 29.88 in 10.0 mi SSE 6.9 mph - N/A   Clear
11:53 PM 66.2 °F - 60.8 °F 83% 29.87 in 10.0 mi SE 6.9 mph - N/A   Clear